TimeEDT,TemperatureF,Dew PointF,Humidity,Sea Level PressureIn,VisibilityMPH,Wind Direction,Wind SpeedMPH,Gust SpeedMPH,PrecipitationIn,Events,Conditions,WindDirDegrees,DateUTC
3:15 AM,64.4,64.4,100,30.10,10.0,Calm,Calm,-,N/A,,Unknown,0,2013-08-12 07:15:00
3:35 AM,64.4,64.4,100,30.09,10.0,Calm,Calm,-,N/A,,Unknown,0,2013-08-12 07:35:00
3:55 AM,64.4,64.4,100,30.08,10.0,Calm,Calm,-,N/A,,Unknown,0,2013-08-12 07:55:00
4:15 AM,64.4,64.4,100,30.08,10.0,Calm,Calm,-,N/A,,Unknown,0,2013-08-12 08:15:00
4:35 AM,62.6,62.6,100,30.08,10.0,Calm,Calm,-,N/A,,Unknown,0,2013-08-12 08:35:00
4:55 AM,62.6,62.6,100,30.08,10.0,Calm,Calm,-,N/A,,Unknown,0,2013-08-12 08:55:00
5:15 AM,62.6,62.6,100,30.08,7.0,Calm,Calm,-,N/A,,Unknown,0,2013-08-12 09:15:00
5:35 AM,62.6,62.6,100,30.08,0.8,Calm,Calm,-,N/A,,Unknown,0,2013-08-12 09:35:00
5:55 AM,62.6,62.6,100,30.08,0.2,Calm,Calm,-,N/A,,Unknown,0,2013-08-12 09:55:00
6:15 AM,62.6,62.6,100,30.09,0.2,Calm,Calm,-,N/A,,Unknown,0,2013-08-12 10:15:00
6:35 AM,64.4,64.4,100,30.09,0.2,Calm,Calm,-,N/A,,Unknown,0,2013-08-12 10:35:00
6:55 AM,64.4,64.4,100,30.09,0.2,Calm,Calm,-,N/A,,Unknown,0,2013-08-12 10:55:00
7:15 AM,64.4,64.4,100,30.10,0.2,Calm,Calm,-,N/A,,Unknown,0,2013-08-12 11:15:00
7:35 AM,64.4,64.4,100,30.11,2.0,Calm,Calm,-,N/A,,Unknown,0,2013-08-12 11:35:00
7:55 AM,64.4,64.4,100,30.10,3.0,SW,5.8,-,N/A,,Unknown,220,2013-08-12 11:55:00
8:15 AM,64.4,64.4,100,30.10,3.0,SW,4.6,-,N/A,,Unknown,230,2013-08-12 12:15:00
8:35 AM,66.2,66.2,100,30.10,3.0,SW,3.5,-,N/A,,Unknown,230,2013-08-12 12:35:00
8:55 AM,66.2,66.2,100,30.10,4.0,WSW,3.5,-,N/A,,Unknown,240,2013-08-12 12:55:00
9:15 AM,66.2,66.2,100,30.10,7.0,SW,4.6,-,N/A,,Unknown,230,2013-08-12 13:15:00
9:35 AM,69.8,69.8,100,30.09,10.0,SW,3.5,-,N/A,,Unknown,230,2013-08-12 13:35:00
9:55 AM,69.8,69.8,100,30.09,10.0,Calm,Calm,-,N/A,,Unknown,0,2013-08-12 13:55:00
10:15 AM,71.6,69.8,94,30.09,10.0,Calm,Calm,-,N/A,,Unknown,0,2013-08-12 14:15:00
10:35 AM,73.4,68.0,83,30.09,10.0,Calm,Calm,-,N/A,,Unknown,0,2013-08-12 14:35:00
10:55 AM,73.4,66.2,78,30.09,10.0,NW,4.6,-,N/A,,Unknown,310,2013-08-12 14:55:00
11:15 AM,73.4,64.4,73,30.09,10.0,West,6.9,-,N/A,,Unknown,280,2013-08-12 15:15:00
11:35 AM,75.2,66.2,73,30.09,10.0,Calm,Calm,-,N/A,,Unknown,0,2013-08-12 15:35:00
11:55 AM,75.2,64.4,69,30.09,10.0,West,4.6,-,N/A,,Unknown,260,2013-08-12 15:55:00
12:15 PM,75.2,64.4,69,30.08,10.0,West,4.6,-,N/A,,Unknown,270,2013-08-12 16:15:00
12:35 PM,77.0,66.2,69,30.07,10.0,West,8.1,-,N/A,,Unknown,260,2013-08-12 16:35:00
12:55 PM,77.0,66.2,69,30.07,10.0,WSW,8.1,-,N/A,,Unknown,240,2013-08-12 16:55:00
1:15 PM,78.8,66.2,65,30.07,10.0,West,5.8,-,N/A,,Unknown,260,2013-08-12 17:15:00
1:35 PM,75.2,66.2,73,30.06,10.0,NW,4.6,-,N/A,,Unknown,310,2013-08-12 17:35:00
1:55 PM,78.8,66.2,65,30.05,10.0,West,5.8,-,N/A,,Unknown,280,2013-08-12 17:55:00
2:15 PM,75.2,68.0,78,30.05,10.0,Calm,Calm,-,N/A,,Unknown,0,2013-08-12 18:15:00
2:35 PM,78.8,66.2,65,30.05,10.0,West,4.6,-,N/A,,Unknown,280,2013-08-12 18:35:00
2:55 PM,78.8,64.4,61,30.04,10.0,West,5.8,-,N/A,,Unknown,280,2013-08-12 18:55:00
3:15 PM,77.0,66.2,69,30.04,10.0,SSW,5.8,-,N/A,,Unknown,210,2013-08-12 19:15:00
3:35 PM,77.0,66.2,69,30.04,10.0,WSW,4.6,-,N/A,,Unknown,240,2013-08-12 19:35:00
3:55 PM,78.8,68.0,69,30.03,10.0,West,5.8,-,N/A,,Unknown,260,2013-08-12 19:55:00
4:15 PM,78.8,68.0,69,30.02,10.0,SW,5.8,-,N/A,,Unknown,230,2013-08-12 20:15:00
4:35 PM,78.8,66.2,65,30.01,10.0,West,6.9,-,N/A,,Unknown,270,2013-08-12 20:35:00
4:55 PM,77.0,68.0,74,30.01,10.0,Calm,Calm,-,N/A,,Unknown,0,2013-08-12 20:55:00
5:15 PM,78.8,68.0,69,30.00,10.0,WSW,6.9,-,N/A,,Unknown,240,2013-08-12 21:15:00
5:35 PM,77.0,68.0,74,30.00,10.0,Calm,Calm,-,N/A,,Unknown,0,2013-08-12 21:35:00
5:55 PM,77.0,68.0,74,30.00,10.0,West,6.9,-,N/A,,Unknown,260,2013-08-12 21:55:00
6:15 PM,75.2,68.0,78,29.99,10.0,SW,3.5,-,N/A,,Unknown,230,2013-08-12 22:15:00
6:35 PM,77.0,68.0,74,29.99,10.0,WSW,5.8,-,N/A,,Unknown,240,2013-08-12 22:35:00
6:55 PM,75.2,69.8,83,29.98,10.0,SW,4.6,-,N/A,,Unknown,220,2013-08-12 22:55:00
7:15 PM,75.2,69.8,83,29.97,10.0,SW,5.8,-,N/A,,Unknown,220,2013-08-12 23:15:00
7:35 PM,68.0,68.0,100,30.00,10.0,NNE,5.8,18.4,0.04,,Unknown,20,2013-08-12 23:35:00
7:55 PM,69.8,69.8,100,29.99,10.0,ESE,5.8,-,0.04,,Unknown,120,2013-08-12 23:55:00
8:15 PM,68.0,68.0,100,29.99,10.0,East,3.5,-,N/A,,Unknown,100,2013-08-13 00:15:00
8:35 PM,68.0,68.0,100,29.98,10.0,East,4.6,-,N/A,,Unknown,100,2013-08-13 00:35:00
8:55 PM,66.2,66.2,100,29.98,10.0,ESE,4.6,-,N/A,,Unknown,110,2013-08-13 00:55:00
9:15 PM,66.2,66.2,100,29.98,10.0,Calm,Calm,-,N/A,,Unknown,0,2013-08-13 01:15:00
9:35 PM,66.2,66.2,100,29.98,10.0,Calm,Calm,-,N/A,,Unknown,0,2013-08-13 01:35:00
9:55 PM,66.2,66.2,100,29.98,10.0,Calm,Calm,-,N/A,,Unknown,0,2013-08-13 01:55:00
10:15 PM,66.2,66.2,100,29.98,10.0,Calm,Calm,-,N/A,,Unknown,0,2013-08-13 02:15:00
10:35 PM,66.2,66.2,100,29.97,10.0,Calm,Calm,-,N/A,,Unknown,0,2013-08-13 02:35:00
10:55 PM,64.4,64.4,100,29.95,10.0,Calm,Calm,-,N/A,,Unknown,0,2013-08-13 02:55:00
11:15 PM,66.2,66.2,100,29.94,10.0,Calm,Calm,-,N/A,,Unknown,0,2013-08-13 03:15:00
11:35 PM,66.2,66.2,100,29.93,10.0,Calm,Calm,-,N/A,,Unknown,0,2013-08-13 03:35:00
11:55 PM,66.2,66.2,100,29.93,10.0,Calm,Calm,-,N/A,,Unknown,0,2013-08-13 03:55:00